User: anonymous   Login
Location: Unspecified
(0.0000°N, 0.0000°E)
Time: 06:16:22
(UTC+00:00)
Language:

Shinsei - Orbit

View from above orbital plane
View from above orbital plane
View from above satellite
View from above satellite

Ground track
Ground track

The orbit data is extracted from the following two-line orbital elements,

1  5485U 71080A   17119.43033715 +.00000047 +00000-0 +42568-4 0  9993
2  5485 032.0555 134.8533 0640441 306.2534 048.0500 12.74121126123755
Epoch (UTC): 29 April 2017 10:19:41
Eccentricity: 0.0640441
inclination: 32.0555°
perigee height: 869 km
apogee height: 1861 km
right ascension of ascending node: 134.8533°
argument of perigee: 306.2534°
revolutions per day: 12.74121126
mean anomaly at epoch: 48.0500°
orbit number at epoch: 12375

The dashed part of the orbit path shows where the satellite is in the earth's shadow,  

DLR